Location: Cardiff
(53.7833°N, 113.6000°W)
Time: 14:47:01
(UTC+00:00)

RS-15 - Pass Details

Date: 07 December 2023
Orbit: 1893 x 2151 km, 64.8° (Epoch: 27 February)

Event Time Altitude Azimuth Distance (km) Brightness Sun altitude
Exits shadow 14:16:55 12° 304° (NW) 4,261 9.2 -10.9°
Maximum altitude 14:24:09 23° 261° (W) 3,393 8.8 -10.0°
Drops below altitude 10° 14:31:58 10° 214° (SW) 4,295 9.8 -8.9°
Sets 14:36:06 0° 201° (SSW) 5,271 10.4 -8.4°
